Tracking 23114 objects as of 14-May-2021
HD Live streaming from Space Station
objects crossing your sky now

METEOR 2-10 DEB

Track METEOR 2-10 DEB now!
10-day predictions


NORAD ID: 38537
Int'l Code: 1983-109E
Perigee: 676.1 km
Apogee: 769.8 km
Inclination: 81.1 °
Period: 99.1 minutes
Semi major axis: 7093 km
RCS: 0.0027 m2 (small)
Launch date: October 28, 1983
Source: Commonwealth of Independent States (former USSR) (CIS)
Launch site: PLESETSK MISSILE AND SPACE COMPLEX (PKMTR)

Note: This is SATELLITE DEBRIS
aabbcc
Your satellite tracking list
Your tracking list is empty




NASA's NSSDC Master Catalog

Two Line Element Set (TLE):
1 38537U 83109E   21132.82047833  .00002110  00000-0  49369-3 0  9999
2 38537  81.1495 323.8438 0066076 253.8965 105.4948 14.53021825739078
Source of the keplerian elements: AFSPC